Whiting Fld NAS, FL

4:13 PM CST on November 18, 2019 (GMT -0600)
Whiting Field Naval Air Station (North)

Weather History for KNSE - September, 2019

Change the Weather History Date:

Monday, September 9, 2019

  Actual Average Record
Temperature  
Mean Temperature 82 °F -  
Max Temperature 93 °F 85 °F 93 °F (2010)
Min Temperature 71 °F 68 °F 57 °F (2011)
Cooling Degree Days 17    
Growing Degree Days 32 (Base 50)    
Moisture  
Dew Point 75 °F    
Average Humidity 83    
Maximum Humidity 100    
Minimum Humidity 55    
Precipitation  
Precipitation 0.00 in - - ()
Sea Level Pressure  
Sea Level Pressure 30.04 in    
Wind  
Wind Speed 2 mph (SSE)    
Max Wind Speed 14 mph    
Max Gust Speed 20 mph    
Visibility 8 miles    
Events      
Averages and records for this station are not official NWS values.
T = Trace of Precipitation, MM = Missing Value Source: NWS Daily Summary

Daily Weather History Graph

Daily Weather History Graph

Search for Another Location

Airport or City:

Astronomy

Sep. 09, 2019 Rise Set
Actual Time 6:28 AM CDT 7:01 PM CDT
Civil Twilight 6:04 AM CDT 7:25 PM CDT
Nautical Twilight 5:36 AM CDT 7:54 PM CDT
Astronomical Twilight 5:07 AM CDT 8:23 PM CDT
Moon 4:38 PM CDT (9/9) 2:19 AM CDT (9/9)
Length of Visible Light 13h 21m
Length of Day
12h 32m
Waxing Gibbous, 83% of the Moon is Illuminated
Sep 9
Waxing Gibbous
Sep 13
Full
Sep 21
Last Quarter
Sep 28
New
Oct 5
First Quarter

Hourly Weather History & Observations

Time (CDT) Temp. Heat Index Dew Point Humidity Pressure Visibility Wind Dir Wind Speed Gust Speed Precip Events Conditions
12:56 AM 75.9 °F - 75.9 °F 100% 29.98 in 6.0 mi Calm Calm - N/A   Clear
1:56 AM 75.9 °F - 75.0 °F 97% 29.97 in 5.0 mi Calm Calm - N/A   Clear
2:56 AM 77.0 °F - 75.9 °F 96% 29.98 in 6.0 mi Calm Calm - N/A   Clear
3:56 AM 75.0 °F - 75.0 °F 100% 29.98 in 4.0 mi Calm Calm - N/A   Clear
4:56 AM 75.0 °F - 75.0 °F 100% 29.99 in 2.5 mi Calm Calm - N/A   Clear
5:46 AM 73.9 °F - 73.9 °F 100% 30.05 in 3.0 mi Calm Calm - N/A   Clear
5:56 AM 73.9 °F - 73.9 °F 100% 30.01 in 3.0 mi Calm Calm - N/A   Partly Cloudy
6:56 AM 75.9 °F - 75.9 °F 100% 30.03 in 3.0 mi Calm Calm - N/A   Mostly Cloudy
7:56 AM 80.1 °F 86.7 °F 79.0 °F 96% 30.05 in 3.0 mi Calm Calm - N/A   Scattered Clouds
8:10 AM 81.0 °F 89.9 °F 80.1 °F 97% 30.10 in 5.0 mi Calm Calm - N/A   Scattered Clouds
8:56 AM 86.0 °F 100.8 °F 80.1 °F 82% 30.06 in 9.0 mi Calm Calm - N/A   Scattered Clouds
9:56 AM 88.0 °F 97.5 °F 75.0 °F 65% 30.07 in 10.0 mi Calm Calm - N/A   Scattered Clouds
10:56 AM 90.0 °F 101.3 °F 75.9 °F 63% 30.07 in 10.0 mi SE 6.9 mph - N/A   Mostly Cloudy
11:56 AM 91.0 °F 102.9 °F 75.9 °F 61% 30.06 in 10.0 mi Variable 6.9 mph - N/A   Mostly Cloudy
12:56 PM 91.9 °F 101.3 °F 73.9 °F 55% 30.04 in 10.0 mi SSE 6.9 mph - N/A   Mostly Cloudy
1:56 PM 91.0 °F 104.2 °F 77.0 °F 63% 30.03 in 10.0 mi South 13.8 mph - N/A   Mostly Cloudy
2:56 PM 91.0 °F 102.9 °F 75.9 °F 61% 30.02 in 10.0 mi South 12.7 mph - N/A   Mostly Cloudy
3:56 PM 90.0 °F 99.0 °F 73.9 °F 59% 30.01 in 10.0 mi South 13.8 mph 19.6 mph N/A   Scattered Clouds
4:56 PM 87.1 °F 94.5 °F 73.0 °F 63% 30.01 in 10.0 mi SSW 9.2 mph - N/A   Mostly Cloudy
5:56 PM 84.9 °F 90.7 °F 72.0 °F 65% 30.01 in 10.0 mi SSE 9.2 mph - N/A   Mostly Cloudy
6:56 PM 82.0 °F 86.3 °F 71.1 °F 69% 30.04 in 10.0 mi SE 6.9 mph - N/A   Mostly Cloudy
7:56 PM 80.1 °F 83.8 °F 72.0 °F 76% 30.04 in 10.0 mi SSE 4.6 mph - N/A   Mostly Cloudy
8:56 PM 75.9 °F - 72.0 °F 87% 30.05 in 10.0 mi Calm Calm - N/A   Mostly Cloudy
9:56 PM 73.9 °F - 72.0 °F 93% 30.06 in 10.0 mi East 3.5 mph - N/A   Mostly Cloudy
10:45 PM 73.0 °F - 71.1 °F 93% 30.11 in 10.0 mi Calm Calm - N/A   Mostly Cloudy
10:56 PM 73.0 °F - 71.1 °F 93% 30.07 in 10.0 mi NNE 3.5 mph - N/A   Clear
11:56 PM 71.1 °F - 71.1 °F 100% 30.08 in 10.0 mi NE 3.5 mph - N/A   Clear